Starlink 3709

operational
NORAD ID: 52102 Int'l Des: 2022-029 Owner: SPXS Country: US Constellation: starlink
LEOCIRCULAR

关于 Starlink 3709

正在加载描述...

实时位置

正在加载3D地球...

即将过境

高度历史

Altitude vs Time

uPlot chart will show altitude changes over time

两行轨道根数

1 52102U 22029Q 25306.21824608 .00012403 00000-0 79595-3 0 9990
2 52102 53.2157 291.3621 0001271 109.4426 250.6704 15.08843471201543
Epoch: Nov 2, 2025 • Age: 40 hours

当前状态

高度 545.1 km
速度 7.60 km/s
星下点 51.56°N, 9.82°W
发射日期 Mar 19, 2022
运行时间 3.6 years
类型 internet

技术详情

分类 Payload
质量 297.00 kg
干质量 275.00 kg
总质量 297.00 kg
长度 0.20 m
直径 2.80 m
跨度 9.00 m
形状 Box + pan
制造商 SPXS
平台类型 Starlink
阶段状态 In Orbit
所有者/国家 SPXS/US

大型星座

Loading constellations...